TimeEST,TemperatureF,Dew PointF,Humidity,Sea Level PressureIn,VisibilityMPH,Wind Direction,Wind SpeedMPH,Gust SpeedMPH,PrecipitationIn,Events,Conditions,WindDirDegrees,DateUTC
12:53 AM,66.9,64.0,90,30.07,10.0,North,6.9,-,N/A,,Clear,360,2012-11-14 05:53:00
1:53 AM,69.1,66.0,90,30.06,10.0,NNW,6.9,-,0.00,,Overcast,340,2012-11-14 06:53:00
2:38 AM,69.8,66.2,88,30.06,10.0,ESE,3.5,-,N/A,,Mostly Cloudy,120,2012-11-14 07:38:00
2:53 AM,69.1,66.0,90,30.06,10.0,Calm,Calm,-,N/A,,Mostly Cloudy,0,2012-11-14 07:53:00
3:00 AM,69.8,64.4,83,30.06,10.0,Calm,Calm,-,N/A,,Mostly Cloudy,0,2012-11-14 08:00:00
3:53 AM,69.1,66.0,90,30.06,10.0,Calm,Calm,-,0.00,,Overcast,0,2012-11-14 08:53:00
4:53 AM,64.9,64.0,97,30.06,10.0,WNW,5.8,-,N/A,,Clear,290,2012-11-14 09:53:00
5:53 AM,64.9,64.0,97,30.06,10.0,NW,3.5,-,N/A,,Clear,320,2012-11-14 10:53:00
6:53 AM,66.9,66.0,97,30.08,10.0,North,4.6,-,N/A,,Partly Cloudy,350,2012-11-14 11:53:00
7:53 AM,70.0,66.9,90,30.10,10.0,NNW,5.8,-,N/A,,Clear,340,2012-11-14 12:53:00
8:53 AM,73.9,66.9,79,30.12,10.0,NNE,4.6,-,N/A,,Partly Cloudy,20,2012-11-14 13:53:00
9:53 AM,75.9,68.0,76,30.12,10.0,NE,6.9,-,0.00,,Partly Cloudy,40,2012-11-14 14:53:00
10:53 AM,75.0,69.1,82,30.10,9.0,ENE,11.5,16.1,0.03,Rain,Light Rain,70,2012-11-14 15:53:00
11:53 AM,80.1,68.0,67,30.09,10.0,East,13.8,-,0.00,,Mostly Cloudy,80,2012-11-14 16:53:00
12:53 PM,79.0,66.9,66,30.07,10.0,East,12.7,24.2,N/A,,Mostly Cloudy,80,2012-11-14 17:53:00
1:53 PM,79.0,66.0,64,30.06,10.0,ENE,15.0,-,0.00,,Clear,70,2012-11-14 18:53:00
2:53 PM,79.0,66.0,64,30.05,10.0,ESE,12.7,-,N/A,,Partly Cloudy,110,2012-11-14 19:53:00
3:53 PM,75.9,66.0,71,30.06,10.0,ESE,9.2,-,N/A,,Overcast,110,2012-11-14 20:53:00
4:53 PM,75.9,66.9,74,30.06,10.0,East,5.8,-,N/A,,Partly Cloudy,90,2012-11-14 21:53:00
5:53 PM,73.9,64.9,73,30.06,10.0,East,8.1,-,N/A,,Partly Cloudy,80,2012-11-14 22:53:00
6:53 PM,71.1,64.9,81,30.08,10.0,East,5.8,-,N/A,,Clear,90,2012-11-14 23:53:00
7:53 PM,72.0,64.0,76,30.08,10.0,NE,4.6,-,N/A,,Clear,50,2012-11-15 00:53:00
8:53 PM,66.9,63.0,87,30.09,10.0,Calm,Calm,-,N/A,,Clear,0,2012-11-15 01:53:00
9:53 PM,64.9,63.0,93,30.10,10.0,Calm,Calm,-,N/A,,Clear,0,2012-11-15 02:53:00
10:53 PM,66.0,64.9,96,30.10,10.0,NW,3.5,-,N/A,,Clear,320,2012-11-15 03:53:00
11:53 PM,64.9,63.0,93,30.09,10.0,Calm,Calm,-,N/A,,Clear,0,2012-11-15 04:53:00